   US/California.  Observer G. van Buitenen. 0.61-m f/6.5 astrograph + CCD.
(U94) iTelescope Observatory, Beryl Junction  (N37.737780 W113.697500)
   US/Utah.  Observer H. Sato. 0.51-m f/4.5 Corrected Dall-Kirkham +
   CCD0.51-m f/6.8 astrograph + f/4.5 focal reducer + CCD.
(V11) Saguaro Observatory, Tucson  (N32.208836 W110.788810)  US/Arizona.
   Observer D. Rankin. 0.20-m reflector + CCD.
(V21) Cewanee Observatory at DSNM  (N31.946619 W108.897690)  US/New Mexico.
   Observer D. T. Durig. 0.4-m f/8 Ritchey-Chrétien + 4656x3520 CCD.
(W62) Comet Hunter Observatory2, New Ringgold  (N40.745185 W75.862390)
   US/Pennsylvania.  Observer J. Maikner. 0.30-m f/3.8 Riccardi-Honders + CCD.
(Y66) Two-Meter Twin Telescope, TTT2, Teide  (N28.298728 W16.509470)  Canary
   Islands (Spain).

Orbital elements:  DRA0734
   Perihelion 2024 Oct 2.54097 TT = 12:58:59 (JD 2460586.04097)
Epoch 2024 Oct  4.0 TT = JDT 2460587.5   Earth MOID: 0.9145      AutoNEOCP
M   0.38580530                      (J2000 ecliptic)
n   0.26442499     Peri.   60.14317
a   2.40399952     Node     1.43235
e   0.2131569      Incl.    6.94046
P   3.72736        H   15.20    G   0.15   q 1.89157041  Q 2.91642863
85 of 94 observations 2024 Sept. 30-Oct. 4; mean residual 0".51
Residuals in arcseconds: 
240930 V11  .00   1.5-    241001 T08  .60-  .52-    241002 658  .40+  .87+    
240930 V11  .49-  .68-    241001 P13  .07+  .32+    241002 U52  .95+  .46-    
240930 V11( .31-  1.8-)   241001 P13  .11+  .33+    241002 U52  1.0+  .49+    
240930 M38  .03+  .25-    241001 C23  1.2-  .73+    241002 L76  .57-  .05+    
240930 M38  .41-  .46-    241001 C23  .26-  .33-    241003 L76  .62+  .21-    
240930 L90( 1.7-  .20+)   241001 L90( 2.3+  .34+)   241003 L76  .28+  .64+    
240930 L90  .41-  .50-    241001 I81  .13+  .39+    241003 Y66  .62+  .44+    
241001 L90( 1.8-  1.6+)   241001 L90  .18+  .69-    241003 Y66  .59+  .01+    
241001 I81  .01+  .53+    241001 L90  .91-  .24+    241003 Y66  .22+  .45+    
241001 I81  .11+  .24+    241001 I81  .03-  .60+    241003 Y66  .15-  .78+    
241001 I81  .16+  .14-    241001 I81  .06+  .52+    241004 C23  1.2+  .54-    
241001 950  .32-  .13-    241002 851  .03-  .39+    241004 C23  .72-  .49-    
241001 950  .25+  .67-    241002 851  .16+  .81+    241004 C23  .72+  .45+    
241001 V21  .34-  .09-    241002 851  1.3+  .20-    241004 C23  .60-  .03+    
241001 V21  .01+  .03+    241002 851  1.1+  .26+    241004 Y66  .42-  .33-    
241001 V21  .03-  .35-    241002 851  .05-  .24+    241004 Y66  .26+  .80-    
241001 V21  .12+  .30-    241002 851  .21-  .19-    241004 Y66  .22+  .20-    
241001 G96  .23+  .14-    241002 851  .88+  .09+    241004 Y66  .32+  .06+    
241001 G96  .46+  .03-    241002 U94  .06+  .36-    241004 Y66  .17+  .19-    
241001 G96  .83-  .18+    241002 U94  .12+  .38-    241004 Y66  .10-  .53-    
241001 G96  .02-  .24-    241002 I52  .01+  .17+    241004 W62  .07+  .03-    
241001 G96  .82-  .40+    241002 I52  .22+  .07-    241004 W62  .26+  .01+    
241001 G96  .12+  .12-    241002 I52  .02+  .02-    241004 W62  .02-  .17+    
241001 G96  .59-  .22+    241002 U94  .14+  .09+    241004 V21( 1.1-  1.4-)   
241001 U69  .89+  .18+    241002 I52  .09+  .09+    241004 V21  1.1-  .81-    
241001 U69  .17-  .61-    241002 U94  .24+  .32+    241004 V21  1.5-  .75-    
241001 U52  .89+  .34+    241002 I52  .53+  .12-    241004 V21  1.3-  .58-    
241001 U52  .88-  .39-    241002 658  .36-  .72+    241004 V21( 1.6-  1.1-)   
241001 U52  .95-  .58+    241002 658  .35-  .58+    241004 V21( 1.5-  1.5-)   
241001 T08  .39+  .46-    241002 658  .05-  .57+    241004 V21( 1.8-  1.4-)   
241001 T08  .26+  .51-    241002 658  .40-  .90+    
241001 T08( 2.1+  .51-)   241002 658  .01-  .83+    

Ephemerides (geocentric):
Date (UTC) HH   RA             Dec           delta  r     elong  mag
---- --------  ------------   ------------  ------ ------ -----  ---
2024 10 04 20  06 19 15.095   +31 08 25.88  1.4801 1.8916  97.5 18.8
2024 10 04 21  06 19 19.263   +31 08 36.44  1.4797 1.8916  97.5 18.8
2024 10 04 22  06 19 23.430   +31 08 46.99  1.4793 1.8916  97.6 18.8
2024 10 04 23  06 19 27.594   +31 08 57.55  1.4789 1.8916  97.6 18.8
2024 10 05 00  06 19 31.756   +31 09 08.10  1.4785 1.8916  97.6 18.8
2024 10 05 01  06 19 35.916   +31 09 18.65  1.4781 1.8916  97.6 18.8
2024 10 05 02  06 19 40.073   +31 09 29.19  1.4777 1.8916  97.7 18.8
2024 10 05 03  06 19 44.229   +31 09 39.74  1.4773 1.8916  97.7 18.8
2024 10 05 04  06 19 48.382   +31 09 50.29  1.4769 1.8916  97.7 18.8
2024 10 05 05  06 19 52.533   +31 10 00.83  1.4765 1.8916  97.7 18.8
2024 10 05 06  06 19 56.681   +31 10 11.37  1.4761 1.8916  97.8 18.8
2024 10 05 07  06 20 00.828   +31 10 21.91  1.4757 1.8916  97.8 18.8
2024 10 05 08  06 20 04.972   +31 10 32.45  1.4753 1.8916  97.8 18.8
2024 10 05 09  06 20 09.114   +31 10 42.98  1.4749 1.8916  97.9 18.8
2024 10 05 10  06 20 13.253   +31 10 53.52  1.4745 1.8916  97.9 18.8
2024 10 05 11  06 20 17.390   +31 11 04.05  1.4741 1.8916  97.9 18.8
2024 10 05 12  06 20 21.526   +31 11 14.58  1.4737 1.8916  97.9 18.8
2024 10 05 13  06 20 25.658   +31 11 25.11  1.4733 1.8916  98.0 18.8
2024 10 05 14  06 20 29.789   +31 11 35.64  1.4729 1.8917  98.0 18.8
2024 10 05 15  06 20 33.917   +31 11 46.17  1.4725 1.8917  98.0 18.8
2024 10 05 16  06 20 38.043   +31 11 56.69  1.4721 1.8917  98.0 18.8
2024 10 05 17  06 20 42.167   +31 12 07.22  1.4717 1.8917  98.1 18.8
2024 10 05 18  06 20 46.289   +31 12 17.74  1.4713 1.8917  98.1 18.8
2024 10 05 19  06 20 50.408   +31 12 28.26  1.4709 1.8917  98.1 18.8
2024 10 05 20  06 20 54.525   +31 12 38.78  1.4705 1.8917  98.1 18.8
2024 10 05 21  06 20 58.640   +31 12 49.30  1.4701 1.8917  98.2 18.8
2024 10 05 22  06 21 02.752   +31 12 59.82  1.4697 1.8917  98.2 18.8
2024 10 05 23  06 21 06.862   +31 13 10.33  1.4693 1.8917  98.2 18.8
2024 10 06 00  06 21 10.970   +31 13 20.84  1.4689 1.8917  98.2 18.8
2024 10 06 01  06 21 15.076   +31 13 31.36  1.4685 1.8917  98.3 18.8
2024 10 06 02  06 21 19.179   +31 13 41.87  1.4681 1.8917  98.3 18.8
2024 10 06 03  06 21 23.280   +31 13 52.38  1.4677 1.8917  98.3 18.8
2024 10 06 04  06 21 27.379   +31 14 02.89  1.4673 1.8917  98.3 18.8
2024 10 06 05  06 21 31.476   +31 14 13.39  1.4669 1.8917  98.4 18.8
2024 10 06 06  06 21 35.570   +31 14 23.90  1.4665 1.8917  98.4 18.8
2024 10 06 07  06 21 39.662   +31 14 34.40  1.4661 1.8917  98.4 18.8
2024 10 06 08  06 21 43.751   +31 14 44.90  1.4657 1.8917  98.5 18.8
2024 10 06 09  06 21 47.838   +31 14 55.41  1.4653 1.8917  98.5 18.8
2024 10 06 10  06 21 51.923   +31 15 05.91  1.4649 1.8917  98.5 18.8
2024 10 06 11  06 21 56.006   +31 15 16.41  1.4645 1.8917  98.5 18.8
2024 10 06 12  06 22 00.086   +31 15 26.90  1.4641 1.8917  98.6 18.8
2024 10 06 13  06 22 04.165   +31 15 37.40  1.4637 1.8917  98.6 18.8
2024 10 06 14  06 22 08.240   +31 15 47.89  1.4633 1.8917  98.6 18.8
2024 10 06 15  06 22 12.314   +31 15 58.39  1.4629 1.8917  98.6 18.8
2024 10 06 16  06 22 16.385   +31 16 08.88  1.4625 1.8917  98.7 18.7
2024 10 06 17  06 22 20.454   +31 16 19.37  1.4621 1.8917  98.7 18.7
2024 10 06 18  06 22 24.520   +31 16 29.86  1.4617 1.8917  98.7 18.7
2024 10 06 19  06 22 28.584   +31 16 40.35  1.4613 1.8917  98.7 18.7